Weather in Monopoli

Italy     40°56′53″N   17°17′26″E
temp.,
°C
wind,
m/s
gust,
m/s
humid.,
%
clouds,
%
prec.,
mm/h
press.,
hPa
HPBL,
m
24 september, fri
fri2423:00+20nnw785518 0.0 1021787
02:00+19nw565446 0.0 1020677
05:00+18w3355100 0.0 1020426
08:00+18w225699 0.0 1020304
11:00+20n01498 0.0 1021491
14:00+21ene32495 0.0 1019420
17:00+21e44515 0.0 1019403
20:00+21se45560 0.0 1019266
25 september, sat
sat2523:00+20ssw23490 0.0 1020150
02:00+20s11460 0.0 1020111
05:00+20s11460 0.0 1020102
08:00+21se11440 0.0 1020167
11:00+23e32460 0.0 1021390
14:00+23e43500 0.0 1021310
17:00+23e44540 0.0 1020268
20:00+22se45580 0.0 1021190
26 september, sun
sun2623:00+22sse22594 0.0 102170
02:00+22sse12575 0.0 102138
05:00+22sse115683 0.0 102042
08:00+23se335170 0.0 102195
11:00+25e3348100 0.0 1021348
14:00+25e5456100 0.0 1019226
17:00+24ese55630 0.0 1018187
20:00+24se45665 0.0 1018104
27 september, mon
mon2723:00+24s12595 0.0 101819
02:00+23ssw22605 0.0 101816
05:00+23s1161100 0.0 101612
08:00+24ssw115836 0.0 101635
11:00+27ene334854 0.0 1016324
14:00+26e435664 0.0 1015241
17:00+26se556184 0.0 1013218
20:00+24nnw2368100 0.2 101459
28 september, tue
tue2823:00+23nnw4578100 0.0 1016283
02:00+22nnw6880100 0.1 1016607
05:00+22nw6880100 0.0 1016631
08:00+22nw797976 0.0 1016631
11:00+23nw89755 0.0 1016853
14:00+23nnw910760 0.0 1016831
17:00+23nnw79760 0.0 1015559
20:00+22nw35780 0.0 1015259